CW6617 Weather Reports


Display with metric or nautical units.
time (UTC)temp
F
wind
direction
speed
MPH
gust
MPH
rain 1hr
in
rain 24hr
in
rain mn
in
humidity
%
barometer
mb
20260504174704 59 94 2.0 9.0 0.00 0.00 0.00 80 1013.6
20260504173704 59 47 1.0 6.0 0.00 0.00 0.00 80 1013.5
20260504173204 59 30 4.0 13.0 0.00 0.00 0.00 79 1013.5
20260504171704 60 48 2.0 8.0 0.00 0.00 0.00 78 1013.5
20260504171204 60 52 4.0 9.0 0.00 0.00 0.00 78 1013.5
20260504170703 60 36 4.0 13.0 0.00 0.00 0.00 78 1013.6
20260504170204 61 46 6.0 13.0 0.00 0.00 0.00 77 1013.6
20260504160204 60 9 3.0 13.0 0.00 0.00 0.00 80 1013.9
20260504150203 61 66 5.0 12.0 0.00 0.00 0.00 78 1014.0
20260504141204 64 39 7.0 10.0 0.00 0.00 0.00 72 1014.1
20260504140704 62 55 3.0 8.0 0.00 0.00 0.00 74 1014.2
20260504130704 60 142 1.0 3.0 0.00 0.00 0.00 80 1014.3
20260504130204 60 85 2.0 9.0 0.00 0.00 0.00 80 1014.3
20260504120203 59 54 2.0 7.0 0.00 0.00 0.00 83 1014.4
20260504110704 58 42 2.0 6.0 0.00 0.00 0.00 85 1014.5
20260504110205 58 39 2.0 7.0 0.00 0.00 0.00 86 1014.5
20260504081703 55 341 2.0 6.0 0.00 0.00 0.00 91 1013.7
20260504081204 55 52 4.0 9.0 0.00 0.00 0.00 91 1013.7
20260504080704 55 357 3.0 10.0 0.00 0.00 0.00 91 1013.7
20260504080204 55 45 3.0 10.0 0.00 0.00 0.00 91 1013.7
20260504070204 55 96 2.0 5.0 0.00 0.00 0.00 92 1013.1
20260504060204 54 175 1.0 2.0 0.00 0.00 0.00 93 1012.6
20260504050704 54 175 0.0 0.0 0.00 0.00 0.00 93 1012.2
20260504044704 54 175 0.0 0.0 0.00 0.00 0.00 93 1012.0
20260504044204 54 175 0.0 0.0 0.00 0.00 0.00 93 1012.0
20260504043703 54 175 0.0 0.0 0.00 0.00 0.00 93 1012.0
20260504043204 54 175 0.0 0.0 0.00 0.00 0.00 93 1012.0
20260504041704 54 175 0.0 0.0 0.00 0.00 0.00 93 1012.1
20260504041204 54 175 0.0 0.0 0.00 0.00 0.00 93 1012.1
20260504040703 54 175 0.0 0.0 0.00 0.00 0.00 93 1012.0
20260504034203 54 175 0.0 0.0 0.00 0.00 0.00 93 1012.0
20260504033704 54 175 0.0 0.0 0.00 0.00 0.00 93 1012.0
20260504033204 54 175 0.0 1.0 0.00 0.00 0.00 93 1012.0
20260504031204 54 175 1.0 2.0 0.00 0.00 0.00 93 1012.1
20260504030704 54 175 0.0 2.0 0.00 0.00 0.00 93 1012.0
20260504030204 54 175 1.0 3.0 0.00 0.00 0.00 93 1012.0
20260504024704 54 175 1.0 3.0 0.00 0.00 0.00 93 1012.0
20260504024204 54 175 1.0 3.0 0.00 0.00 0.00 93 1012.0
20260504023704 54 175 1.0 2.0 0.00 0.00 0.00 93 1011.9
20260504023204 54 175 0.0 1.0 0.00 0.00 0.00 93 1011.9
20260504021704 54 175 0.0 1.0 0.00 0.00 0.00 93 1011.9
20260504021203 54 175 0.0 0.0 0.00 0.00 0.00 93 1011.9
20260504020204 54 175 1.0 2.0 0.00 0.00 0.00 93 1011.8
20260504014704 54 175 1.0 3.0 0.00 0.00 0.00 93 1011.8
20260504014203 54 177 2.0 5.0 0.00 0.00 0.00 93 1011.8
20260504013704 54 197 0.0 2.0 0.00 0.00 0.00 93 1011.8
20260504013204 54 197 2.0 3.0 0.00 0.00 0.00 93 1011.8
20260504011204 54 198 0.0 1.0 0.00 0.00 0.00 93 1011.7
20260504010203 54 198 0.0 3.0 0.00 0.00 0.00 92 1011.7
20260504004703 54 190 0.0 1.0 0.00 0.00 0.00 92 1011.7
20260504004204 54 190 0.0 1.0 0.00 0.00 0.00 92 1011.8
20260504003704 54 190 2.0 5.0 0.00 0.00 0.00 92 1011.8
20260504003204 54 192 1.0 3.0 0.00 0.00 0.00 92 1011.8
20260504001204 54 226 0.0 2.0 0.00 0.00 0.00 91 1011.7
20260504000703 54 227 1.0 5.0 0.00 0.00 0.00 91 1011.6
20260504000204 54 243 0.0 2.0 0.00 0.00 0.00 90 1011.6
20260503234704 55 250 0.0 2.0 0.00 0.00 0.00 90 1011.6
20260503234203 55 257 1.0 2.0 0.00 0.00 0.00 90 1011.6
20260503233704 55 234 1.0 3.0 0.00 0.00 0.00 90 1011.7
20260503233204 55 172 0.0 3.0 0.00 0.00 0.00 90 1011.6
20260503231703 55 171 1.0 3.0 0.00 0.00 0.00 89 1011.6
20260503231203 55 171 1.0 6.0 0.00 0.00 0.00 89 1011.5
20260503230704 55 171 3.0 6.0 0.00 0.00 0.00 89 1011.5
20260503230203 55 173 2.0 3.0 0.00 0.00 0.00 88 1011.5
20260503224704 56 178 1.0 3.0 0.00 0.00 0.00 88 1011.4
20260503224204 56 178 1.0 6.0 0.00 0.00 0.00 88 1011.4
20260503223703 56 161 3.0 7.0 0.00 0.00 0.00 88 1011.4
20260503223203 56 174 1.0 2.0 0.00 0.00 0.00 88 1011.4
20260503221704 56 174 2.0 6.0 0.00 0.00 0.00 87 1011.3
20260503221204 56 174 0.0 2.0 0.00 0.00 0.00 87 1011.3
20260503220704 56 174 1.0 2.0 0.00 0.00 0.00 87 1011.3
20260503220204 56 174 2.0 3.0 0.00 0.00 0.00 87 1011.3
20260503214703 56 177 0.0 3.0 0.00 0.00 0.00 87 1011.2
20260503214204 57 177 1.0 3.0 0.00 0.00 0.00 87 1011.2
20260503213704 57 178 1.0 3.0 0.00 0.00 0.00 87 1011.2
20260503213204 57 178 1.0 3.0 0.00 0.00 0.00 87 1011.2
20260503211204 57 178 2.0 5.0 0.00 0.00 0.00 86 1011.0
20260503210703 57 178 1.0 5.0 0.00 0.00 0.00 85 1011.0
20260503210204 57 179 0.0 3.0 0.00 0.00 0.00 85 1010.8
20260503204704 58 179 2.0 6.0 0.00 0.00 0.00 84 1010.6
20260503204204 58 178 0.0 2.0 0.00 0.00 0.00 83 1010.6
20260503203704 58 177 1.0 3.0 0.00 0.00 0.00 83 1010.4
20260503203204 58 178 1.0 3.0 0.00 0.00 0.00 82 1010.4
20260503201703 59 178 1.0 5.0 0.00 0.00 0.00 81 1010.2
20260503201203 59 175 2.0 5.0 0.00 0.00 0.00 80 1010.1
20260503200203 60 179 2.0 5.0 0.00 0.00 0.00 78 1010.0
20260503194203 60 188 3.0 9.0 0.00 0.00 0.00 77 1010.0
20260503193704 60 171 5.0 7.0 0.00 0.00 0.00 77 1009.8
20260503193204 60 178 2.0 6.0 0.00 0.00 0.00 77 1009.8
20260503191203 61 180 1.0 5.0 0.00 0.00 0.00 75 1009.6
20260503190704 61 179 1.0 3.0 0.00 0.00 0.00 75 1009.6
20260503190204 61 179 1.0 3.0 0.00 0.00 0.00 75 1009.6
20260503184704 62 178 1.0 3.0 0.00 0.00 0.00 74 1009.4
20260503184204 62 178 2.0 5.0 0.00 0.00 0.00 74 1009.3
20260503183704 62 177 2.0 6.0 0.00 0.00 0.00 74 1009.2
20260503183205 63 167 2.0 7.0 0.00 0.00 0.00 74 1009.3
20260503181704 63 157 1.0 7.0 0.00 0.00 0.00 74 1009.1
20260503181203 63 165 3.0 7.0 0.00 0.00 0.00 73 1009.2
20260503180703 63 190 1.0 3.0 0.00 0.00 0.00 73 1009.1
20260503180204 63 192 2.0 3.0 0.00 0.00 0.00 72 1009.0